Regional Weather Roundup
Issued by NWS Upton, NY

Home | Current Version | Previous Version | Text Only | Print | Product List | Glossary On
Versions: 1 2 3 4 5 6 7 8 9 10 11 12 13 14 15 16 17 18 19 20 21 22 23 24 25 26 27 28 29 30 31 32 33 34 35 36 37 38 39 40 41 42 43 44 45 46 47 48 49 50
109
ASUS41 KOKX 291404
RWROKX

REGIONAL WEATHER ROUNDUP
NATIONAL WEATHER SERVICE NEW YORK NY
1000 AM EDT FRI APR 29 2016

NOTE: "FAIR" INDICATES FEW OR NO CLOUDS BELOW 12,000 FEET WITH NO
SIGNIFICANT WEATHER AND/OR OBSTRUCTIONS TO VISIBILITY.

NYZ071-072-176-178-NJZ106-104-291500-
NEW YORK CITY METRO AREA


CITY           SKY/WX    TMP DP  RH WIND       PRES   REMARKS
CENTRAL PARK   CLOUDY    52  31  44 VRB5      30.14R
LAGUARDIA APRT CLOUDY    53  30  41 E12       30.12R
KENNEDY INTL   PTSUNNY   51  34  52 E16       30.14R
NEWARK/LIBERTY PTSUNNY   53  31  42 E10       30.11R
BRNX BOT. GARD   N/A     50  34  53 N7        30.13F
TETERBORO      CLOUDY    51  35  54 E6        30.11R
$$

NYZ177-179-078>081-291500-
LONG ISLAND NEW YORK

CITY           SKY/WX    TMP DP  RH WIND       PRES   REMARKS
FARMINGDALE    CLOUDY    51  31  46 E16G23    30.13R
ISLIP          PTSUNNY   52  29  41 E17G25    30.13R
SHIRLEY        CLOUDY    53  31  42 E12G20    30.14R
RIVERHEAD        N/A     52  36  54 S5        30.14R
WESTHAMPTON    CLOUDY    48  36  63 E12G21    30.15R
EAST HAMPTON   CLOUDY    47  35  60 E15G23    30.14S
MONTAUK POINT    N/A     50  35  56 E10G18    30.16S
$$

NYZ052-065-067-291500-
HUDSON VALLEY

CITY           SKY/WX    TMP DP  RH WIND       PRES   REMARKS
WHITE PLAINS   PTSUNNY   49  33  54 E12G20    30.11S
NEWBURGH       PTSUNNY   48  37  66 SE6       30.12S
MONTGOMERY     CLOUDY    49  35  58 NE9       30.12R
POUGHKEEPSIE   CLOUDY    54  28  36 S7        30.11F
ALBANY         CLOUDY    49  26  41 CALM      30.14F
$$

NJZ001-105-106-008-010-013-015-019>022-104-291500-
NEW JERSEY

CITY           SKY/WX    TMP DP  RH WIND       PRES   REMARKS
NEWARK/LIBERTY PTSUNNY   53  31  42 E10       30.11R
TETERBORO      CLOUDY    51  35  54 E6        30.11R
CALDWELL       CLOUDY    50  37  61 E12       30.11S
MORRISTOWN     CLOUDY    52  34  50 E9        30.11S
SOMERVILLE     CLOUDY    55  32  41 E8        30.08S
SUSSEX         CLOUDY    50  36  58 VRB6      30.10F
ANDOVER          N/A     50  32  50 VRB3      30.09S
TRENTON        CLOUDY    50  40  68 E12       30.09R
MILLVILLE      CLOUDY    49  45  86 E8        30.05F
ATLANTIC CITY  CLOUDY    50  43  77 E13       30.07S
WRIGHTSTOWN    NOT AVBL
TOMS RIVER     CLOUDY    50  37  62 E13G20    30.10R
BELMAR         CLOUDY    49  39  68 E17       30.11R
$$

PAZ047>061-062-071-291500-
EASTERN PENNSYLVANIA

CITY           SKY/WX    TMP DP  RH WIND       PRES   REMARKS
PHILADELPHIA   CLOUDY    51  41  68 E12       30.08S
ALLENTOWN      CLOUDY    51  37  58 E9        30.08S
SCRANTON       CLOUDY    53  34  48 SE9       30.04S
$$

CTZ002-004>006-009-010-012-RIZ004-006-007-MAZ004-011-015-291500-
SOUTHERN NEW ENGLAND
 IN CT

CITY           SKY/WX    TMP DP  RH WIND       PRES   REMARKS
BRADLEY INTL   PTSUNNY   51  34  52 NE3       30.14F
HARTFORD       PTSUNNY   52  37  56 NW5       30.15S
DANBURY        CLOUDY    50  30  46 SE12      30.14R
WTRBRY/OXFORD  PTSUNNY   48  34  57 SE12      30.14F
BRIDGEPORT     CLOUDY    50  38  63 E16       30.15R
MERIDEN        CLOUDY    51  35  54 CALM      30.15S
NEW HAVEN      PTSUNNY   50  37  61 E16G24    30.15R
CHESTER        PTSUNNY   50  37  62 SE6G13    30.15R
GROTON         PTSUNNY   49  41  74 E20G25    30.16R
WILLIMANTIC    MOSUNNY   52  31  44 E5        30.15S

 IN RI

CITY           SKY/WX    TMP DP  RH WIND       PRES   REMARKS
PROVIDENCE     MOSUNNY   51  32  48 E10       30.18R
BLOCK ISLAND   CLOUDY    47  36  65 E16       30.17R
WESTERLY       MOSUNNY   49  35  58 E14G23    30.18R

 IN MA

CITY           SKY/WX    TMP DP  RH WIND       PRES   REMARKS
BOSTON         CLOUDY    48  34  58 E13       30.20R
WORCESTER      MOSUNNY   45  30  55 E9        30.15S
WESTFIELD      PTSUNNY   52  32  46 SE9       30.15S
PROVINCETOWN   CLOUDY    48  30  49 SE13      30.20S
NANTUCKET      CLOUDY    46  33  60 E16       30.17S
$$

ANZ330-335-338-340-345-350-353-355-291500-
COASTAL MARINE OBSERVATIONS


STATION/POSITION TIME  SKY/WX   TEMP    WIND        PRES    VSBY  WAVE
                                AIR SEA DIR/SP/G                  HT/PER
                 (UTC)          (F)     (DEG/KT/KT) (MB)    (MI)  (FT/S)
NY HARB ENTRANCE 1250            49 51   80/ 17/ 21 1018.9          4/ 4
20S FIRE ISLAND  1250            47 48   70/ 19/ 23 1018.8          4/ 5
GREAT SOUTH BAY  NOT AVBL
23 SSW MONTAUK P 1350            45 46   90/ 19/ 23 1019.6          6/ 6
15 E BARNEGAT LI 1322               51                N/A           5/ 5
HUDSON CANYON    1250            50 51              1017.1          5/ 6
KINGS POINT      1300            50 53              1019.4
EXECUTION ROCKS  NOT AVBL
CENTRAL LI SOUND 1300            47      90/ 17/ 19   N/A           2/ 4
EASTERN LI SOUND 1300            46 47   90/ 14/ 21   N/A
ROBBINS REEF     1300            49      80/ 12/ 14 1018.8
$$


>>>>>>>>>>>>>>>>>>>>>>>>>>>> KEY <<<<<<<<<<<<<<<<<<<<<<<<<<<
>                                                          <
>     SKY/WX - SKY CONDITION/PRESENT WEATHER               <
>     TMP    - TEMPERATURE IN FAHRENHEIT                   <
>     DP     - DEWPOINT IN FAHRENHEIT                      <
>     RH     - RELATIVE HUMIDITY IN PERCENT                <
>     WIND   - DIRECTION AND SPEED IN MPH                  <
>     PRES   - MEAN SEA LEVEL PRESSURE IN INCHES OF HG     <
>     WCI    - WIND CHILL INDEX                            <
>     VSB    - VISIBILITY IN MILES                         <
>     HX     - HEAT INDEX                                  <
>     TC     - TEMPERATURE IN CELSIUS                      <
>     VRB    - VARIABLE WIND DIRECTION                     <
>                                                          <
>>>>>>>>>>>>>>>>>>>>>>>>>>>> KEY <<<<<<<<<<<<<<<<<<<<<<<<<<<






USA.gov is the U.S. government's official web portal to all federal, state and local government web resources and services.